星链-32145 (STARLINK-32145)

导读 | 豆包AI

STARLINK-32145是美国太空探索技术公司 SpaceX 星链互联网卫星星座的一员,于2024年6月27日发射。星链项目旨在构建覆盖全球的低轨卫星互联网星座,为地面偏远地区等提供高速网络接入服务,该卫星入轨后参与星座组网,推进全球卫星互联网络的覆盖能力建设。

Basic Information
目录编号:
60154
目录名称:
STARLINK-32145
国际标识:
2024-120V
轨道中心:
EARTH
卫星名称:
星链-32145
卫星全名:
星链-32145 (STARLINK-32145)
卫星状态:
在轨 (已飞行626 天)
发射日期:
2024-06-27 UTC
国别 :
美国 (US)
星等 :
--
Orbit Information
数据来源 国际轨道数据 AOE轨道数据
星历时间 2026-03-15T05:09:03+0800
22小时前
查看轨道信息
2026-03-14T16:00:00+0800
1天前
查看轨道信息
半长轴 6853.367km 6853.319km
偏心率 0.0001353 0.0001362
轨道倾角 53.160° 53.157°
近地点辐角 90.701° 68.769°
升交点赤经 295.620° 298.166°
平近点角 269.414° 151.167°
近地点 474.302km 474.248km
远地点 476.158km 476.116km
周期 94.106分钟 94.105分钟
每日圈数 15.301951 15.302112
Detailed Information
固有亮度:
5
最大亮度:
2.5
卫星平台:
Starlink V1.0
覆盖范围:
全球
运营商:
太空探索技术公司
运营商所在国:
美国
制造商(研发单位):
太空探索技术公司
制造商所在国:
美国
使用方式:
暂无
Satellite Introduction
Starlink 计划是 SpaceX 推出的全球卫星互联网项目,通过发射低轨道卫星,为全球尤其是偏远地区提供高速、低延迟的互联网服务。自 2019 年起,Starlink 已部署数千颗卫星,旨在缩小全球数字鸿沟,推动互联网普及。该项目还为军事、航空等行业提供通信支持,带来广泛经济效益。
2D Orbit Map
3D Orbit Map
Orbit Altitude Analysis Chart
Orbit Inclination Analysis Chart
Orbit Comprehensive Analysis Chart
View Comprehensive Chart